map of MPL home
Great Circle Mapper logo
MPL - Airport
Location
City:  Montpellier Méditerranée, France
Name:Frejorgues
ICAO / IATA:LFMT / MPL

Details
Type:Airport (Aerodrome, Airfield)
Use:Public/Civil, International (customs port of entry)
Latitude:43°35'00"N (43.583333)
Longitude:3°57'41"E (3.961389)
Elevation:17 ft (5 m)
Runways:2
Longest:8530 × 164 ft (2600 × 50 m), paved

Time
Time Zone:UTC+1 (DST+2)
Local Time:

Weather
METAR:LFMT 191130Z 13014KT 9999 FEW026 SCT260 25/20 Q1013 NOSIG
TAF:LFMT 191100Z 1912/2012 12015KT 9999 FEW020 FEW040TCU
BECMG 1915/1917 05012KT BKN012 SCT060CB
TEMPO 1917/2006 5000 SHRA TS BKN005 BKN050CB

Related Locations
Nearby:
Farthest:CHT: 12409 mi / 19970 km
Waitangi [Tuuta], Chatham Islands, NZ

Find:

   beyond  
but within

Other Information
Maps:
NOTAMs:
Links:
Sources:

  
flag of France   

Sectional Chart

Flight Planning
at skyvector.com

Satellite Image

Google Maps Satellite View

 

Copyright © 2004-2014 Karl L. Swartz. All rights reserved.
The Great Circle Mapper name and logo are trademarks of the Great Circle Mapper.
All other trademarks mentioned herein belong to their respective owners.
Please see credits for attibutions and further copyright information.

  Follow gcmap on Facebook Follow gcmap on Twitter

hCard Microformat

Geo Microformat